EW2941 Weather Reports


time (UTC)temp
C
wind
direction
speed
KPH
gust
KPH
rain 1hr
cm
rain 24hr
cm
rain mn
cm
humidity
%
barometer
mb
20260507151529 13 6 1.6 9.7 0.00 0.10 0.08 67 1010.9
20260507150014 13 5 1.6 8.0 0.00 0.28 0.08 71 1010.8
20260507144603 13 8 1.6 8.0 0.00 0.28 0.08 74 1010.9
20260507143035 13 163 0.0 6.4 0.00 0.28 0.08 74 1011.4
20260507141611 13 285 1.6 8.0 0.00 0.28 0.08 74 1011.4
20260507140039 13 352 0.0 8.0 0.00 0.33 0.08 74 1011.4
20260507134519 13 344 0.0 9.7 0.00 0.33 0.08 73 1011.5
20260507133002 13 350 0.0 8.0 0.00 0.33 0.08 73 1011.4
20260507131543 13 311 3.2 8.0 0.00 0.33 0.08 74 1011.1
20260507130013 13 27 1.6 9.7 0.00 0.33 0.08 78 1011.2
20260507124606 13 153 1.6 6.4 0.00 0.33 0.08 78 1011.3
20260507123041 13 218 0.0 11.3 0.00 0.33 0.08 80 1010.9
20260507121507 13 309 0.0 9.7 0.00 0.33 0.08 82 1011.0
20260507120050 13 319 0.0 12.9 0.00 0.33 0.08 83 1010.7
20260507114539 12 12 1.6 8.0 0.00 0.33 0.08 85 1010.7
20260507113015 12 224 0.0 4.8 0.00 0.33 0.08 85 1010.8
20260507111549 12 126 1.6 6.4 0.00 0.33 0.08 86 1010.5
20260507110037 12 352 0.0 4.8 0.00 0.33 0.08 87 1010.6
20260507104511 12 6 0.0 6.4 0.00 0.33 0.08 87 1010.5
20260507103057 12 348 0.0 3.2 0.00 0.33 0.08 88 1010.3
20260507101533 12 198 0.0 3.2 0.00 0.33 0.08 87 1009.8
20260507100009 12 324 0.0 3.2 0.00 0.33 0.08 88 1009.9
20260507094600 12 130 0.0 3.2 0.00 0.33 0.08 90 1010.3
20260507093036 12 328 0.0 3.2 0.00 0.33 0.08 91 1010.0
20260507091508 12 337 0.0 4.8 0.00 0.33 0.08 92 1010.2
20260507090050 12 153 0.0 4.8 0.00 0.33 0.08 93 1010.0
20260507084538 13 14 0.0 1.6 0.00 0.33 0.08 93 1009.7
20260507083013 13 349 0.0 3.2 0.00 0.33 0.08 92 1009.9
20260507081545 13 174 0.0 1.6 0.00 0.33 0.08 92 1010.0
20260507080028 13 7 0.0 6.4 0.00 0.33 0.08 91 1010.0
20260507074511 13 330 1.6 6.4 0.00 0.33 0.08 91 1009.3
20260507073104 13 326 0.0 4.8 0.00 0.33 0.08 91 1009.2
20260507071526 13 179 0.0 1.6 0.00 0.33 0.08 91 1009.1
20260507070013 13 352 0.0 3.2 0.00 0.33 0.08 91 1009.1
20260507064555 13 13 0.0 14.5 0.00 0.33 0.08 93 1009.2
20260507063035 14 151 0.0 8.0 0.03 0.33 0.08 94 1009.4
20260507061504 14 8 0.0 3.2 0.03 0.33 0.08 94 1009.3
20260507060045 15 354 0.0 6.4 0.03 0.33 0.08 94 1007.5
20260507054522 15 221 1.6 6.4 0.05 0.33 0.08 94 1007.4
20260507053126 15 181 0.0 3.2 0.03 0.30 0.05 94 1007.8
20260507051531 16 277 0.0 3.2 0.03 0.30 0.05 94 1008.7
20260507050022 16 16 1.6 6.4 0.05 0.30 0.05 94 1008.8
20260507044620 17 32 0.0 4.8 0.03 0.28 0.03 95 1008.4
20260507043042 17 108 0.0 0.0 0.03 0.28 0.03 95 1008.3
20260507041513 17 108 0.0 0.0 0.03 0.28 0.03 94 1008.0
20260507040101 17 108 0.0 0.0 0.00 0.25 0.25 93 1008.3
20260507034544 17 108 0.0 1.6 0.00 0.25 0.25 93 1008.1
20260507033026 17 108 0.0 1.6 0.00 0.25 0.25 93 1007.9
20260507031559 17 43 0.0 0.0 0.00 0.25 0.25 93 1008.0
20260507030033 17 43 0.0 0.0 0.00 0.25 0.25 93 1008.3
20260507024511 17 42 0.0 0.0 0.00 0.25 0.25 93 1007.8
20260507023052 17 42 0.0 0.0 0.00 0.25 0.25 92 1007.5
20260507021524 17 43 0.0 0.0 0.00 0.25 0.25 92 1007.2
20260507020009 17 43 0.0 0.0 0.00 0.25 0.25 92 1007.7
20260507014556 17 43 0.0 0.0 0.00 0.25 0.25 92 1007.7
20260507013036 17 43 0.0 0.0 0.00 0.25 0.25 91 1007.6
20260507011504 17 43 0.0 0.0 0.00 0.25 0.25 91 1007.8
20260507010046 18 43 0.0 0.0 0.00 0.25 0.25 91 1007.4
20260507004528 18 226 0.0 0.0 0.00 0.25 0.25 91 1007.4
20260507003011 18 226 0.0 1.6 0.00 0.25 0.25 90 1007.3
20260507001543 18 226 0.0 0.0 0.00 0.25 0.25 90 1007.4
20260507000027 18 226 0.0 1.6 0.00 0.25 0.25 90 1007.3
20260506234506 19 226 0.0 1.6 0.00 0.25 0.25 89 1007.1
20260506233052 19 226 0.0 1.6 0.00 0.25 0.25 88 1006.6
20260506231520 20 186 0.0 1.6 0.00 0.25 0.25 88 1006.7
20260506230107 20 285 0.0 4.8 0.00 0.25 0.25 87 1006.8
20260506224543 20 324 0.0 3.2 0.00 0.25 0.25 87 1006.9
20260506223025 20 232 0.0 3.2 0.00 0.25 0.25 86 1006.8
20260506221556 20 245 0.0 1.6 0.00 0.25 0.25 85 1007.0
20260506220040 20 226 0.0 3.2 0.00 0.25 0.25 85 1006.8
20260506214518 20 340 0.0 3.2 0.00 0.25 0.25 85 1006.7
20260506213001 20 321 0.0 4.8 0.00 0.25 0.25 85 1007.1
20260506211533 20 284 0.0 4.8 0.00 0.25 0.25 85 1006.8
20260506210017 20 255 0.0 3.2 0.00 0.25 0.25 85 1006.8
20260506204556 20 222 0.0 1.6 0.00 0.25 0.25 86 1007.0
20260506203041 20 248 0.0 3.2 0.00 0.25 0.25 86 1007.0
20260506201511 20 245 0.0 1.6 0.00 0.25 0.25 87 1007.2
20260506200054 19 180 0.0 1.6 0.00 0.25 0.25 89 1007.1
20260506194536 18 338 0.0 1.6 0.00 0.25 0.25 90 1007.0
20260506193017 18 210 0.0 1.6 0.00 0.25 0.25 90 1007.4
20260506191550 18 324 0.0 6.4 0.00 0.25 0.25 90 1007.5
20260506190038 18 318 0.0 1.6 0.00 0.25 0.25 91 1007.9
20260506184513 18 317 0.0 1.6 0.00 0.25 0.25 91 1008.1
20260506183057 18 313 0.0 3.2 0.00 0.25 0.25 91 1008.1
20260506181527 17 281 0.0 3.2 0.00 0.25 0.25 92 1008.1
20260506180012 17 11 0.0 3.2 0.00 0.25 0.25 92 1008.3
20260506174552 17 245 0.0 3.2 0.00 0.25 0.25 93 1008.2
20260506173040 17 177 0.0 3.2 0.00 0.25 0.25 94 1008.4
20260506171620 17 158 0.0 1.6 0.00 0.25 0.25 95 1008.4
20260506170040 17 333 0.0 3.2 0.00 0.25 0.25 95 1008.4
20260506164516 17 331 0.0 1.6 0.00 0.25 0.25 95 1008.7
20260506163106 17 331 0.0 1.6 0.00 0.25 0.25 96 1008.7
20260506161527 16 338 0.0 3.2 0.00 0.25 0.25 96 1009.3
20260506160007 16 232 0.0 1.6 0.03 0.25 0.25 96 1008.9
20260506154551 16 213 0.0 3.2 0.05 0.25 0.25 95 1008.7
20260506153028 16 280 0.0 1.6 0.10 0.25 0.25 95 1008.8
20260506151603 16 305 0.0 1.6 0.18 0.25 0.25 95 1008.7